Nur fliegen ist schöner ....

Willkommen beim Flugservice Bautzen GmbH

Wir sind eine nach europäischen Richtlinien zugelassene Flugschule und lizenziertes Luftfahrtunternehmen. Bei uns können sie nicht nur Rundflüge über die Oberlausitz oder Sachsen buchen, sondern in unserer Flugschule selber das Fliegen erlernen. Erfahrene Fluglehrer stehen ihnen dabei zur Seite.

Wir bieten außerdem Businessflüghe sowie Transportleistungen auf dem Luftweg, ganz nach ihren Wünschen, an. Schauen sie sich in Ruhe bei uns um und wenn sie Fragen haben oder weitere Informationen benötigen, scheuen sie sich nicht Kontakt mit uns aufzunehmen.

Rundflüge können sie ganz leicht auch online in unserem Shop buchen.

Terminkalender

Letzter Monat Oktober 2017 Nächster Monat
Mo Di Mi Do Fr Sa So
week 39 1
week 40 2 3 4 5 6 7 8
week 41 9 10 11 12 13 14 15
week 42 16 17 18 19 20 21 22
week 43 23 24 25 26 27 28 29
week 44 30 31

Flugwetterinfo

[Quelle: ADDS]
METAR
EDDC 230020Z 27007KT 220V310 9999 FEW005 BKN007 08/08 Q1013 =
TAF
EDDC 222300Z 2300/2324 26007KT 7000 BKN015 TEMPO 2300/2306 2500 -DZRA BKN006 TEMPO 2314/2322 3500 -RADZ BKN011 =
SR / SS: 05:40 / 15:52 UTC (EDAB Flugplatz Bautzen 2017-10-23)

Webcam EDAB

Webcam EDAB
Flugservice Bautzen GmbH, Kornmarkt 34, 02625 Bautzen  Telefon: +49 (3591) 211105, Telefax: +49 (3591) 274512, E-Mail:  flugservice(at)fsbautzen.de